Regional Weather Roundup
Issued by NWS

Home | Current Version | Previous Version | Graphics & Text | Print | Product List | Glossary On
Versions: 1 2 3 4 5 6 7 8 9 10 11 12 13 14 15 16 17 18 19 20 21 22 23 24 25 26 27 28 29 30 31 32 33 34 35 36 37 38 39 40 41 42 43 44 45 46 47 48 49 50
000
ASUS45 KCYS 241010
RWRWY

WYOMING REGIONAL WEATHER ROUNDUP
NATIONAL WEATHER SERVICE CHEYENNE WY
400 AM MDT SAT JUN 24 2017

NOTE:  "FAIR" INDICATES FEW OR NO CLOUDS BELOW 12,000 FEET
WITH NO SIGNIFICANT WEATHER AND/OR OBSTRUCTIONS TO VISIBILITY.

WYZ001-241100-
YELLOWSTONE NATIONAL PARK

CITY           SKY/WX    TMP DP  RH WIND       PRES   REMARKS
LK YELLOWSTONE   N/A     30  26  85 CALM      30.42R
W YELLOWSTONE  NOT AVBL

$$
WYZ002>013-054>058-071-098>099-241100-
NORTHERN WYOMING

CITY           SKY/WX    TMP DP  RH WIND       PRES   REMARKS
JACKSON        FAIR      39  34  81 NW3       30.34R
CODY           FAIR      47  35  63 SW6       30.34F
GREYBULL       FAIR      52  35  52 CALM      30.27S
WORLAND        FAIR      49  34  56 CALM      30.28S
SHERIDAN       FAIR      47  42  83 SW8       30.29F
BUFFALO        FAIR      48  34  58 NW6       30.32F
GILLETTE       FAIR      44  37  76 CALM      30.29S
NEWCASTLE      FAIR      43  28  56 N3        30.29F

$$
WYZ014>020-022>026-101>103-241100-
CENTRAL WYOMING

CITY           SKY/WX    TMP DP  RH WIND       PRES   REMARKS
BIG PINEY      FAIR      36  26  67 CALM      30.37R
PINEDALE       FAIR      37  32  81 CALM      30.37S
DUBOIS         FAIR      36  28  75 NW6       30.39F WCI  31
LANDER         FAIR      47  32  56 W12       30.32F
RIVERTON       FAIR      47  31  53 N8        30.33F
CASPER         MOCLDY    40  33  76 NW6       30.32F
DOUGLAS        CLOUDY    44  38  79 CALM      30.32F

$$
WYZ021-027>030-104>119-241100-
SOUTHERN WYOMING

CITY           SKY/WX    TMP DP  RH WIND       PRES   REMARKS
EVANSTON       FAIR      44  33  65 E5        30.33F
KEMMERER         N/A     45  30  57 N12       30.36F
FORT BRIDGER   FAIR      44  28  53 NW3       30.37S
ROCK SPRINGS   FAIR      45  29  53 E7        30.33F
DIXON          FAIR      40  30  68 CALM      30.31R
RAWLINS        FAIR      47  27  45 NE15      30.33S
SARATOGA       FAIR      43  32  65 SW8       30.32S
LARAMIE        FAIR      45  28  51 E8        30.34F
CHEYENNE       CLOUDY    52  29  41 E5        30.34S
TORRINGTON     CLOUDY    50  38  63 NE3       30.28F
PINE BLUFFS    CLOUDY    52  43  71 CALM      30.32F

$$



USA.gov is the U.S. government's official web portal to all federal, state and local government web resources and services.